• In Hungary
  • List of Countries
  • For 7 days
  • Water Temperature
  • Satellite Maps
  • Weather Map
  • News
  • Weather Widgets
  • user-avatar
    Login

    Hourly Weather Ilinka

    Today, 22 February, Thursday

    Time Temperature Precipitation Wind Pressure Humidity
    00:00 -16°C° 0.1 mm 1 mps 719 mmHg 94%
    01:00 -16°C° 0 mm 1 mps 719 mmHg 95%
    02:00 -16°C° 0 mm 1 mps 719 mmHg 95%
    03:00 -17°C° 0 mm 1 mps 719 mmHg 95%
    04:00 -17°C° 0 mm 1 mps 719 mmHg 96%
    05:00 -17°C° 0 mm 1 mps 719 mmHg 96%
    06:00 -18°C° 0 mm 1 mps 718 mmHg 96%
    07:00 -17°C° 0 mm 1 mps 718 mmHg 96%
    08:00 -15°C° 0 mm 1 mps 718 mmHg 92%
    09:00 -13°C° 0 mm 1 mps 718 mmHg 89%
    10:00 -14°C° 0 mm 2 mps 718 mmHg 86%
    11:00 -13°C° 0 mm 2 mps 718 mmHg 83%
    12:00 -14°C° 0 mm 3 mps 718 mmHg 80%
    13:00 -14°C° 0 mm 3 mps 718 mmHg 78%
    14:00 -14°C° 0 mm 3 mps 718 mmHg 79%
    15:00 -15°C° 0 mm 3 mps 718 mmHg 79%
    16:00 -14°C° 0 mm 2 mps 719 mmHg 80%
    17:00 -16°C° 0 mm 2 mps 719 mmHg 84%
    18:00 -18°C° 0 mm 2 mps 719 mmHg 87%
    19:00 -17°C° 0 mm 1 mps 720 mmHg 90%
    20:00 -18°C° 0 mm 1 mps 720 mmHg 90%
    21:00 -19°C° 0 mm 1 mps 721 mmHg 91%
    22:00 -19°C° 0 mm 1 mps 721 mmHg 91%
    23:00 -20°C° 0 mm 1 mps 722 mmHg 91%

    Tomorrow, 23 February, Friday

    Time Temperature Precipitation Wind Pressure Humidity
    00:00 -20°C° 0 mm 1 mps 722 mmHg 92%
    01:00 -20°C° 0 mm 1 mps 722 mmHg 92%
    02:00 -21°C° 0 mm 1 mps 723 mmHg 92%
    03:00 -21°C° 0 mm 1 mps 723 mmHg 92%
    04:00 -21°C° 0 mm 1 mps 723 mmHg 92%
    05:00 -21°C° 0 mm 1 mps 723 mmHg 92%
    06:00 -22°C° 0 mm 1 mps 723 mmHg 91%
    07:00 -25°C° 0 mm 2 mps 724 mmHg 91%
    08:00 -23°C° 0 mm 2 mps 724 mmHg 89%
    09:00 -19°C° 0 mm 2 mps 724 mmHg 87%
    10:00 -17°C° 0 mm 2 mps 724 mmHg 85%
    11:00 -15°C° 0 mm 2 mps 723 mmHg 83%
    12:00 -14°C° 0 mm 2 mps 723 mmHg 81%
    13:00 -12°C° 0 mm 2 mps 723 mmHg 79%
    14:00 -12°C° 0 mm 2 mps 723 mmHg 81%
    15:00 -12°C° 0 mm 2 mps 723 mmHg 82%
    16:00 -12°C° 0 mm 2 mps 723 mmHg 84%
    17:00 -14°C° 0 mm 2 mps 723 mmHg 87%
    18:00 -16°C° 0 mm 2 mps 723 mmHg 90%
    19:00 -18°C° 0 mm 2 mps 723 mmHg 92%
    20:00 -18°C° 0 mm 2 mps 723 mmHg 92%
    21:00 -18°C° 0 mm 2 mps 723 mmHg 92%
    22:00 -19°C° 0 mm 2 mps 724 mmHg 92%
    23:00 -18°C° 0 mm 2 mps 724 mmHg 92%

    Day after tomorrow, 24 February, Saturday

    Time Temperature Precipitation Wind Pressure Humidity
    00:00 -18°C° 0 mm 2 mps 724 mmHg 92%
    01:00 -18°C° 0 mm 2 mps 724 mmHg 92%
    02:00 -16°C° 0 mm 1 mps 724 mmHg 92%
    03:00 -16°C° 0 mm 1 mps 723 mmHg 92%
    04:00 -16°C° 0 mm 1 mps 723 mmHg 92%
    05:00 -16°C° 0 mm 1 mps 723 mmHg 93%
    06:00 -16°C° 0 mm 1 mps 723 mmHg 93%
    07:00 -15°C° 0 mm 1 mps 723 mmHg 93%
    08:00 -14°C° 0.1 mm 1 mps 723 mmHg 91%
    09:00 -12°C° 0.1 mm 1 mps 723 mmHg 89%
    10:00 -10°C° 0.1 mm 1 mps 723 mmHg 87%
    11:00 -9°C° 0 mm 1 mps 723 mmHg 85%
    12:00 -7°C° 0 mm 1 mps 722 mmHg 83%
    13:00 -6°C° 0 mm 1 mps 722 mmHg 81%
    14:00 -6°C° 0 mm 1 mps 721 mmHg 82%
    15:00 -6°C° 0 mm 1 mps 721 mmHg 84%
    16:00 -6°C° 0 mm 1 mps 721 mmHg 85%
    17:00 -8°C° 0 mm 1 mps 721 mmHg 88%
    18:00 -10°C° 0 mm 1 mps 721 mmHg 90%
    19:00 -12°C° 0 mm 1 mps 721 mmHg 93%
    20:00 -13°C° 0 mm 1 mps 721 mmHg 93%
    21:00 -14°C° 0 mm 1 mps 721 mmHg 93%
    22:00 -14°C° 0 mm 1 mps 721 mmHg 92%
    23:00 -15°C° 0 mm 1 mps 721 mmHg 92%

    25 February, Sunday

    Time Temperature Precipitation Wind Pressure Humidity
    00:00 -15°C° 0 mm 1 mps 721 mmHg 92%
    01:00 -17°C° 0 mm 2 mps 721 mmHg 92%
    02:00 -17°C° 0 mm 2 mps 720 mmHg 92%
    03:00 -17°C° 0 mm 2 mps 720 mmHg 92%
    04:00 -17°C° 0 mm 2 mps 720 mmHg 92%
    05:00 -18°C° 0 mm 2 mps 720 mmHg 92%
    06:00 -18°C° 0 mm 2 mps 720 mmHg 92%
    07:00 -18°C° 0 mm 2 mps 720 mmHg 92%
    08:00 -16°C° 0 mm 2 mps 720 mmHg 90%
    09:00 -13°C° 0 mm 2 mps 720 mmHg 87%
    10:00 -9°C° 0 mm 1 mps 720 mmHg 84%
    11:00 -8°C° 0 mm 1 mps 720 mmHg 83%
    12:00 -6°C° 0 mm 1 mps 719 mmHg 81%
    13:00 -4°C° 0 mm 1 mps 719 mmHg 80%
    14:00 -4°C° 0 mm 1 mps 719 mmHg 82%
    15:00 -4°C° 0 mm 1 mps 719 mmHg 84%
    16:00 -6°C° 0 mm 1 mps 719 mmHg 86%
    17:00 -7°C° 0 mm 1 mps 719 mmHg 87%
    18:00 -8°C° 0 mm 1 mps 719 mmHg 89%
    19:00 -10°C° 0 mm 0 mps 720 mmHg 91%
    20:00 -10°C° 0.1 mm 0 mps 720 mmHg 92%
    21:00 -9°C° 0.1 mm 1 mps 721 mmHg 93%
    22:00 -9°C° 0.1 mm 1 mps 721 mmHg 94%
    23:00 -9°C° 0.2 mm 1 mps 721 mmHg 95%

    26 February, Monday

    Time Temperature Precipitation Wind Pressure Humidity
    00:00 -9°C° 0.2 mm 1 mps 722 mmHg 95%
    01:00 -9°C° 0.2 mm 1 mps 722 mmHg 96%
    02:00 -9°C° 0.3 mm 1 mps 722 mmHg 96%
    03:00 -10°C° 0.3 mm 2 mps 723 mmHg 95%
    04:00 -10°C° 0.3 mm 2 mps 723 mmHg 95%
    05:00 -10°C° 0.1 mm 2 mps 724 mmHg 94%
    06:00 -12°C° 0.1 mm 2 mps 724 mmHg 93%
    07:00 -12°C° 0.1 mm 2 mps 725 mmHg 92%
    08:00 -12°C° 0 mm 2 mps 725 mmHg 89%
    09:00 -12°C° 0 mm 2 mps 725 mmHg 86%
    10:00 -10°C° 0 mm 2 mps 725 mmHg 83%
    11:00 -10°C° 0 mm 2 mps 725 mmHg 81%
    12:00 -10°C° 0 mm 2 mps 725 mmHg 80%
    13:00 -9°C° 0 mm 2 mps 725 mmHg 78%
    14:00 -10°C° 0 mm 2 mps 724 mmHg 80%
    15:00 -10°C° 0 mm 2 mps 724 mmHg 81%
    16:00 -10°C° 0 mm 2 mps 724 mmHg 83%
    17:00 -11°C° 0 mm 1 mps 725 mmHg 86%
    18:00 -12°C° 0 mm 1 mps 725 mmHg 89%
    19:00 -13°C° 0 mm 1 mps 725 mmHg 92%
    20:00 -14°C° 0 mm 1 mps 726 mmHg 92%
    21:00 -14°C° 0 mm 1 mps 726 mmHg 93%
    22:00 -15°C° 0 mm 1 mps 726 mmHg 93%
    23:00 -15°C° 0 mm 1 mps 726 mmHg 94%

    27 February, Tuesday

    Time Temperature Precipitation Wind Pressure Humidity
    00:00 -15°C° 0 mm 1 mps 726 mmHg 94%
    01:00 -16°C° 0 mm 1 mps 726 mmHg 95%
    02:00 -16°C° 0 mm 1 mps 726 mmHg 95%
    03:00 -16°C° 0 mm 1 mps 726 mmHg 95%
    04:00 -17°C° 0 mm 1 mps 726 mmHg 95%
    05:00 -17°C° 0 mm 1 mps 726 mmHg 96%
    06:00 -17°C° 0 mm 1 mps 726 mmHg 96%
    07:00 -18°C° 0 mm 1 mps 726 mmHg 96%
    08:00 -16°C° 0 mm 1 mps 726 mmHg 91%
    09:00 -16°C° 0 mm 2 mps 726 mmHg 86%
    10:00 -14°C° 0 mm 2 mps 726 mmHg 81%
    11:00 -14°C° 0 mm 2 mps 726 mmHg 79%
    12:00 -15°C° 0 mm 3 mps 726 mmHg 78%
    13:00 -14°C° 0 mm 3 mps 725 mmHg 76%
    14:00 -15°C° 0 mm 3 mps 725 mmHg 77%
    15:00 -15°C° 0 mm 3 mps 725 mmHg 79%
    16:00 -16°C° 0 mm 3 mps 725 mmHg 80%
    17:00 -17°C° 0 mm 3 mps 725 mmHg 84%
    18:00 -18°C° 0 mm 2 mps 726 mmHg 89%
    19:00 -19°C° 0 mm 2 mps 726 mmHg 93%
    20:00 -20°C° 0 mm 2 mps 726 mmHg 94%
    21:00 -20°C° 0 mm 2 mps 726 mmHg 95%
    22:00 -19°C° 0 mm 1 mps 726 mmHg 96%
    23:00 -19°C° 0 mm 1 mps 726 mmHg 96%
    Show more